CAPE
0 3 0 0 0 0 0 0 1 0 1 2 1 4 0 1 2 2 0 0 0 0 0 0 0 0 0
0 0 0 0 0 0 0 0 0 0 0 0 0 0 0 4 0 0 0 0 0 0 0 0 0 0 0
0 0 0 0 0 0 0 0 0 0 0 0 0 1 0 0 0 0 0 0 0 0 0 0 0 0 0
0 0 0 0 0 0 0 0 0 0 0 0 0 0 0 0 0 0 0 0 0 0 0 0 0 0 0
0 0 0 0 0 0 0 0 0 0 0 0 0 0 0 0 0 0 0 0 0 0 0 0 0 0 0
0 0 0 0 0 0 0 0 0 0 0 0 0 0 0 0 0 0 0 0 0 0 0 2 1 1 1
1 0 0 0 0 0 0 0 0 0 0 0 0 0 0 0 0 0 0 0 0 1 2 1 1 3 3
0 0 0 0 0 0 0 0 0 0 0 0 0 0 0 0 1 0 0 0 1 2 3 2 1 0 0
0 0 0 0 0 0 0 0 0 0 0 0 0 0 0 0 0 0 3 4 2 2 2 1 1 0 0
0 0 0 0 0 0 0 0 0 0 0 0 0 0 0 0 1 0 0 1 2 2 2 2 0 0 0
0 0 0 0 0 0 0 0 0 0 0 0 1 1 0 0 1 1 0 0 1 1 1 1 0 0 0
0 0 0 0 0 1 1 0 0 0 0 0 0 0 1 0 0 1 1 0 0 0 0 0 0 0 0
0 0 1 1 3 2 2 1 1 1 0 0 0 0 0 0 0 0 0 0 0 0 0 0 0 0 0
0 2 3 3 1 1 1 1 0 1 0 0 0 0 0 0 0 0 0 0 0 0 0 0 0 0 0
0 0 1 1 1 1 1 1 0 0 1 1 0 0 0 0 0 0 0 0 0 0 0 0 0 0 0
0 1 1 1 1 2 1 1 1 1 1 2 0 0 0 0 0 0 0 0 0 0 0 0 0 0 0
0 0 1 1 3 2 2 1 1 1 2 0 0 1 0 0 0 0 0 0 0 0 0 0 0 0 0
CIN
0 -4 -3 0 0 0 0 0 -5 -3 -6 -24 -16 -36 -3 -7 -5 -27 -22 0 0 0 0 0 0 0 0
0 0 0 0 0 0 0 0 0 0 0 0 0 -2 0 -11 0 0 0 0 0 0 0 0 0 0 0
0 0 0 0 0 0 0 0 0 0 0 0 0 0 0 0 0 0 0 0 0 0 0 0 0 0 0
0 0 0 0 0 0 0 0 0 0 0 0 0 0 0 0 0 0 0 0 0 0 0 0 0 0 0
0 0 0 0 0 0 0 0 0 0 0 0 0 0 0 0 0 0 0 0 0 0 0 0 0 0 0
0 0 0 0 0 0 0 0 0 0 0 0 0 0 0 0 0 0 0 0 0 0 0 0 0 0 0
0 0 0 0 0 0 0 0 0 0 0 0 0 0 0 0 0 0 0 0 0 0 0 0 0 0 0
0 0 0 0 0 0 0 0 0 0 0 0 0 0 0 0 0 0 0 0 0 0 0 0 0 0 0
0 0 0 0 0 0 0 0 0 0 0 0 0 0 0 0 0 0 0 0 0 0 0 0 0 0 0
0 0 0 0 0 0 0 0 0 0 0 0 0 0 0 0 0 0 0 0 0 0 0 0 0 0 0
0 0 0 0 0 0 0 0 0 0 0 0 0 0 0 0 0 0 0 0 0 0 0 0 0 0 0
0 0 0 0 0 0 0 0 0 0 0 0 0 0 0 0 0 0 0 0 0 0 0 0 0 0 0
0 0 0 0 0 0 0 0 0 0 0 0 0 0 0 0 0 0 0 0 0 0 0 0 0 0 0
0 0 0 0 0 0 0 0 0 0 0 0 0 0 0 0 0 0 0 0 0 0 0 0 0 0 0
0 0 0 0 0 0 0 0 0 0 0 0 0 0 0 0 0 0 0 0 0 0 0 0 0 0 0
0 0 0 0 0 0 0 0 0 0 0 0 0 0 0 0 0 0 0 0 0 0 0 0 0 0 0
0 0 0 0 0 0 0 0 0 0 0 0 0 0 0 0 0 0 0 0 0 0 0 0 0 0 0
Wind_Speed
22 20 16 17 19 21 20 19 18 17 17 18 19 19 19 19 15 15 16 17 18 20 21 22 24 26 28
21 20 21 20 21 21 20 21 20 20 19 19 18 19 18 20 17 16 15 15 16 17 18 20 24 26 27
24 21 21 20 22 23 23 22 22 23 21 20 20 19 18 18 17 17 17 17 16 17 19 22 25 26 26
24 24 22 20 21 22 23 22 23 22 21 22 21 19 19 17 17 17 16 16 16 18 22 23 23 25 24
25 24 24 23 22 23 23 24 23 22 23 23 21 20 19 18 18 16 15 16 16 19 20 20 21 20 19
25 26 24 24 23 24 24 24 26 22 23 24 20 21 21 19 17 16 15 15 16 17 17 16 16 16 17
24 23 23 21 22 23 22 24 25 24 20 25 21 22 20 20 17 14 13 14 15 16 15 14 14 15 18
22 22 22 21 20 22 23 23 24 23 21 26 24 23 22 21 17 13 14 15 13 12 12 12 15 17 17
22 21 21 21 21 19 21 21 25 24 21 24 23 23 22 21 19 21 16 12 11 12 13 15 16 15 17
21 21 21 22 19 19 20 20 22 24 21 21 22 21 23 20 19 17 17 14 11 12 14 14 13 13 16
21 21 21 21 20 19 17 18 19 20 18 15 17 16 17 19 18 16 14 13 13 14 13 11 11 14 17
17 18 19 19 18 17 17 18 19 20 14 14 18 15 16 18 20 15 13 13 11 10 11 12 13 13 14
18 18 18 16 14 15 16 15 16 17 15 16 15 13 13 16 16 16 16 11 10 11 12 13 14 15 16
16 15 15 14 14 14 14 14 15 16 16 16 15 14 15 16 17 16 14 15 10 11 13 15 16 16 17
15 16 16 15 15 14 14 14 16 16 15 15 16 16 16 16 16 15 14 15 14 13 14 17 17 18 19
15 15 15 14 13 14 14 15 17 17 18 16 16 17 18 18 17 16 16 17 16 16 17 21 23 21 19
17 17 15 15 15 16 17 18 18 19 19 17 16 18 20 21 20 17 18 18 18 19 19 20 24 22 23
Wind_Direction
295 299 300 302 300 300 299 299 298 291 284 278 278 282 284 294 283 285 294 299 304 309 313 316 321 325 328
292 291 291 296 299 300 299 299 298 298 294 286 283 280 278 289 275 276 290 291 299 305 310 315 320 324 325
290 292 292 295 298 299 300 300 299 300 299 299 293 287 284 285 283 281 288 289 295 302 309 315 319 321 323
286 287 288 293 300 298 298 298 299 300 301 302 300 292 290 286 284 282 284 287 295 301 307 313 317 319 321
283 285 286 288 288 298 296 300 299 300 300 302 301 300 297 290 290 284 283 287 293 301 307 311 315 318 321
280 283 280 284 289 293 297 299 300 299 299 301 301 301 301 299 292 288 283 288 294 300 305 310 315 319 322
279 280 281 283 290 291 294 297 299 306 303 304 304 302 305 305 299 291 284 290 297 299 302 308 313 318 320
281 286 285 289 287 292 296 299 303 305 304 303 306 304 308 309 307 294 290 294 292 293 299 308 314 315 319
279 286 289 290 294 295 296 296 299 303 303 304 306 307 308 309 310 310 301 294 296 297 302 309 313 314 319
279 282 287 292 291 290 294 293 301 306 309 303 306 309 310 315 313 313 312 309 306 306 308 311 315 320 323
284 285 287 288 290 290 291 296 299 301 317 318 319 317 315 320 322 319 318 315 314 314 313 315 318 321 323
286 287 290 291 292 296 300 303 305 306 310 314 316 314 315 316 318 327 324 323 323 321 322 321 319 320 321
289 292 297 300 298 301 307 313 315 318 320 316 315 320 322 319 322 323 324 323 323 321 322 321 321 324 326
295 300 305 304 304 306 307 310 310 316 325 327 322 318 316 318 321 321 324 325 328 323 324 324 325 324 323
299 299 299 300 300 304 306 307 308 310 316 322 325 324 321 317 317 318 318 322 326 328 327 323 324 324 323
303 302 300 300 301 303 306 305 306 309 311 314 314 315 315 317 318 315 317 316 319 321 323 321 321 324 323
298 299 300 301 300 300 301 302 304 306 309 310 307 307 305 305 315 315 312 313 314 315 316 317 320 322 322